National Weather Service Raw Text Product

Displaying AFOS PIL: RWRIA Received: 2018-01-12 12:00 UTC


521 
ASUS43 KDMX 121206
RWRIA 

WEATHER ROUNDUP FOR IOWA
NATIONAL WEATHER SERVICE DES MOINES IA
600 AM CST FRI JAN 12 2018

NOTE: "FAIR" INDICATES FEW OR NO CLOUDS BELOW 12,000 FEET WITH NO
SIGNIFICANT WEATHER AND/OR OBSTRUCTIONS TO VISIBILITY.

* - THESE STATIONS ARE NOT NWS STATIONS...THUS NOT UNDER NWS
QUALITY CONTROL.  THEY ALSO DO NOT REPORT WEATHER SUCH 
AS PRECIPITATION OR FOG.  

IAZ001>003-012>014-020>022-031>034-043>046-121300-
   NORTHWEST IOWA
  
CITY           SKY/WX    TMP DP  RH WIND       PRES   REMARKS
CARROLL *      CLOUDY    -4 -11  71 N13       30.33S WCI -23          
CHEROKEE *     CLOUDY    -6 -12  75 N8        30.37F WCI -21          
DENISON *      CLOUDY    -2  -9  71 N9        30.36R WCI -18          
LE MARS *      CLOUDY    -4 -11  71 N8        30.40S WCI -19          
ORANGE CITY *  CLOUDY    -6 -11  77 N9        30.35F WCI -22          
SHELDON *      CLOUDY    -8 -13  77 N10       30.35F WCI -26          
SIOUX CITY     CLOUDY    -3  -9  75 NW14      30.41R WCI -22          
6HR MIN TEMP:  -3; 6HR MAX TEMP:   2;                                

SPENCER        CLOUDY    -7 -14  71 N13       30.36R WCI -27          
6HR MIN TEMP:  -8; 6HR MAX TEMP:  -2;                                

STORM LAKE *   CLOUDY    -8 -13  77 N16       30.32S WCI -30          
$$
 
IAZ055>058-069>071-079>083-090>094-121300-
   SOUTHWEST IOWA
  
CITY           SKY/WX    TMP DP  RH WIND       PRES   REMARKS
ATLANTIC *     CLOUDY    -2  -9  71 N10       30.34R WCI -19          
AUDUBON *      CLOUDY    -2  -9  71 N9        30.32S WCI -18          
CLARINDA *     CLOUDY     1  -6  71 N14       30.35  WCI -17          
COUNCIL BLFS * CLOUDY     0  -6  78 NW14G21   30.33S WCI -19          
CRESTON *      CLOUDY     0  -8  71 N13G24    30.28R WCI -18          
HARLAN  *      CLOUDY    -2  -9  71 N12       30.37S WCI -20          
LAMONI         CLOUDY     0  -7  72 N16       30.24S WCI -20          
6HR MIN TEMP:   0; 6HR MAX TEMP:   9; 6HR PCP: TRACE;                

RED OAK *      CLOUDY     0  -8  71 N10G16    30.35R WCI -17          
SHENANDOAH *   CLOUDY     1  -6  71 N12       30.36S WCI -15          
$$
 
IAZ047>049-059>061-072>074-084-121300-
   CENTRAL IOWA
  
CITY           SKY/WX    TMP DP  RH WIND       PRES   REMARKS
AMES           CLOUDY    -4 -10  75 N16G24    30.33R WCI -25          
6HR MIN TEMP:  -4; 6HR MAX TEMP:   3;                                

ANKENY *       CLOUDY    -2  -9  71 N14G20    30.33R WCI -21          
BOONE *        CLOUDY    -4 -11  71 N17G25    30.29F WCI -26          
CHARITON *     CLOUDY     0  -8  71 N14G23    30.26S WCI -19          
DES MOINES     CLOUDY    -1  -9  68 N13       30.31R WCI -19          
6HR MIN TEMP:  -1; 6HR MAX TEMP:   6;                                

GRINNELL*      CLOUDY    -2  -7  79 NW18G24   30.27R WCI -24          
KNOXVILLE *    CLOUDY    -2 -11  65 NW14G21   30.27R WCI -21          
MARSHALLTOWN   CLOUDY    -3  -9  75 N22G28    30.29R WCI -27          
6HR MIN TEMP:  -3; 6HR MAX TEMP:   2;                                

NEWTON *       CLOUDY    -2  -9  71 N16G23    30.28S WCI -23          
PELLA *        CLOUDY    -1  -8  74 NW15      30.29S WCI -21          
PERRY *          N/A     -3 -10  72 N15       30.33S WCI -24          
$$
 
IAZ004>006-015-016-023>025-035-036-121300-
   NORTH CENTRAL IOWA
  
CITY           SKY/WX    TMP DP  RH WIND       PRES   REMARKS
ALGONA *       CLOUDY    -8 N/A N/A N12       30.32R WCI -27          
CLARION *      CLOUDY    -8 -15  71 N14       30.34R WCI -28          
ESTHERVILLE    CLOUDY    -9 -15  75 N16       30.34R WCI -32          
6HR MIN TEMP:  -9; 6HR MAX TEMP:  -5;                                

FORT DODGE *   CLOUDY    -7 -14  71 N9        30.34R WCI -24          
MASON CITY     CLOUDY    -9 -15  75 N14       30.31R WCI -30          
6HR MIN TEMP:  -9; 6HR MAX TEMP:  -3;                                

FOREST CITY *    N/A     -8 -13  77 N13       30.32R WCI -28          
WEBSTER CITY * CLOUDY    -6 -15  65 N18       30.31R WCI -29          
IOWA FALLS *     N/A     -4 -10  75 NW15      30.32R WCI -25          
$$

IAZ007>011-017>019-026>030-037>042-050>054-066-121300-
   NORTHEAST IOWA
  
CITY           SKY/WX    TMP DP  RH WIND       PRES   REMARKS
CEDAR RAPIDS     N/A      4  -2  76 N15       30.21R WCI -14          
6HR MIN TEMP:   4; 6HR MAX TEMP:   9;                                

CHARLES CITY * CLOUDY    -4 -11  71 N17       30.28R WCI -26          
CLINTON *        N/A     10   6  84 N16       30.17R WCI  -7          
DECORAH *      MOCLDY     0  -6  78 N15G21    30.22R WCI -20          
DUBUQUE        CLOUDY     8   2  76 N22       30.14S WCI -12          
6HR MIN TEMP:   8; 6HR MAX TEMP:  10;                                

MONTICELLO *   CLOUDY     7   0  72 N17G23    30.19S WCI -12          
OELWEIN *        N/A      1  -4  78 N22G29    30.23R WCI -21          
WATERLOO         N/A     -2  -8  76 NW13      30.27R WCI -20          
6HR MIN TEMP:  -2; 6HR MAX TEMP:   3;                                

$$
 
IAZ064-065-067-068-078-121300-
   EAST CENTRAL IOWA
  
CITY           SKY/WX    TMP DP  RH WIND       PRES   REMARKS
DAVENPORT        N/A     11   4  73 N17       30.18R WCI  -6          
6HR MIN TEMP:  11; 6HR MAX TEMP:  13;                                

IOWA CITY        N/A      7  -1  70 N15       30.23S WCI -10          
6HR MIN TEMP:   6; 6HR MAX TEMP:  10; 6HR PCP: TRACE;                

MT. PLEASANT * CLOUDY     5   0  78 N20       30.19S WCI -15          
MUSCATINE *      N/A      9   3  78 N17G23    30.21S WCI -10          
QUAD CITIES    CLOUDY    12   5  73 N16G25    30.17R WCI  -5          
6HR MIN TEMP:  12; 6HR MAX TEMP:  13;                                

$$
 
IAZ062-063-075>077-085>089-095>099-121300-
   SOUTHEAST IOWA
  
CITY           SKY/WX    TMP DP  RH WIND       PRES   REMARKS
BURLINGTON     CLOUDY     6   0  76 N15G23    30.17R WCI -12          
6HR MIN TEMP:   6; 6HR MAX TEMP:  11;                                

FAIRFIELD *    CLOUDY     3  -6  66 NW20      30.21S WCI -18          
FORT MADISON * CLOUDY     7   1  78 NW13      30.19R WCI  -9          
KEOKUK *       CLOUDY     7   1  78 N14       30.19R WCI -10          
OSKALOOSA *      N/A      1  -5  76 N15       30.26S WCI -18          
OTTUMWA        CLOUDY     2  -6  69 NW17      30.25R WCI -18          
6HR MIN TEMP:   2; 6HR MAX TEMP:   7;                                

WASHINGTON *   CLOUDY     3   0  85 NW21G26   30.21F WCI -18          
$$

ABBREVIATIONS USED IN REMARKS
   TC - TEMPERATURES IN CELSIUS
  WCI - WIND CHILL INDEX
   HX - HEAT INDEX
  VSB - VISIBILITY  
$$

  

572 
ASUS43 KDMX 121201
RWRIA 

WEATHER ROUNDUP FOR IOWA
NATIONAL WEATHER SERVICE DES MOINES IA
600 AM CST FRI JAN 12 2018

NOTE: "FAIR" INDICATES FEW OR NO CLOUDS BELOW 12,000 FEET WITH NO
SIGNIFICANT WEATHER AND/OR OBSTRUCTIONS TO VISIBILITY.

* - THESE STATIONS ARE NOT NWS STATIONS...THUS NOT UNDER NWS
QUALITY CONTROL.  THEY ALSO DO NOT REPORT WEATHER SUCH 
AS PRECIPITATION OR FOG.  

IAZ001>003-012>014-020>022-031>034-043>046-121300-
   NORTHWEST IOWA
  
CITY           SKY/WX    TMP DP  RH WIND       PRES   REMARKS
CARROLL *      CLOUDY    -4 -11  71 N13       30.33S WCI -23          
CHEROKEE *     CLOUDY    -6 -12  75 N8        30.37F WCI -21          
DENISON *      CLOUDY    -2  -9  71 N9        30.36R WCI -18          
LE MARS *      CLOUDY    -4 -11  71 N8        30.40S WCI -19          
ORANGE CITY *  CLOUDY    -6 -11  77 N9        30.35F WCI -22          
SHELDON *      CLOUDY    -8 -13  77 N10       30.35F WCI -26          
SIOUX CITY     CLOUDY    -3  -9  75 NW14      30.41R WCI -22          
6HR MIN TEMP:  -3; 6HR MAX TEMP:   2;                                

SPENCER        CLOUDY    -7 -14  71 N13       30.36R WCI -27          
6HR MIN TEMP:  -8; 6HR MAX TEMP:  -2;                                

STORM LAKE *   CLOUDY    -8 -13  77 N16       30.32S WCI -30          
$$
 
IAZ055>058-069>071-079>083-090>094-121300-
   SOUTHWEST IOWA
  
CITY           SKY/WX    TMP DP  RH WIND       PRES   REMARKS
ATLANTIC *     CLOUDY    -2  -9  71 N10       30.34R WCI -19          
AUDUBON *      CLOUDY    -2  -9  71 N9        30.32S WCI -18          
CLARINDA *     CLOUDY     1  -6  71 N14       30.35  WCI -17          
COUNCIL BLFS * CLOUDY     0  -6  78 NW14G21   30.33S WCI -19          
CRESTON *      CLOUDY     0  -8  71 N13G24    30.28R WCI -18          
HARLAN  *      CLOUDY    -2  -9  71 N12       30.37S WCI -20          
LAMONI         CLOUDY     0  -7  72 N16       30.24S WCI -20          
6HR MIN TEMP:   0; 6HR MAX TEMP:   9; 6HR PCP: TRACE;                

RED OAK *      CLOUDY     0  -8  71 N10G16    30.35R WCI -17          
SHENANDOAH *   CLOUDY     1  -6  71 N12       30.36S WCI -15          
$$
 
IAZ047>049-059>061-072>074-084-121300-
   CENTRAL IOWA
  
CITY           SKY/WX    TMP DP  RH WIND       PRES   REMARKS
AMES           CLOUDY    -4 -10  75 N16G24    30.33R WCI -25          
6HR MIN TEMP:  -4; 6HR MAX TEMP:   3;                                

ANKENY *       CLOUDY    -2  -9  71 N14G20    30.33R WCI -21          
BOONE *        CLOUDY    -4 -11  71 N17G25    30.29F WCI -26          
CHARITON *     CLOUDY     0  -8  71 N14G23    30.26S WCI -19          
DES MOINES     CLOUDY    -1  -9  68 N13       30.31R WCI -19          
6HR MIN TEMP:  -1; 6HR MAX TEMP:   6;                                

GRINNELL*      CLOUDY    -2  -7  79 NW18G24   30.27R WCI -24          
KNOXVILLE *    CLOUDY    -2 -11  65 NW14G21   30.27R WCI -21          
MARSHALLTOWN   CLOUDY    -3  -9  75 N22G28    30.29R WCI -27          
6HR MIN TEMP:  -3; 6HR MAX TEMP:   2;                                

NEWTON *       CLOUDY    -2  -9  71 N16G23    30.28S WCI -23          
PELLA *        CLOUDY    -1  -8  74 NW15      30.29S WCI -21          
$$
 
IAZ004>006-015-016-023>025-035-036-121300-
   NORTH CENTRAL IOWA
  
CITY           SKY/WX    TMP DP  RH WIND       PRES   REMARKS
ALGONA *       CLOUDY    -8 N/A N/A N12       30.32R WCI -27          
CLARION *      CLOUDY    -8 -15  71 N14       30.34R WCI -28          
ESTHERVILLE    CLOUDY    -9 -15  75 N16       30.34R WCI -32          
6HR MIN TEMP:  -9; 6HR MAX TEMP:  -5;                                

FORT DODGE *   CLOUDY    -7 -14  71 N9        30.34R WCI -24          
MASON CITY     CLOUDY    -9 -15  75 N14       30.31R WCI -30          
6HR MIN TEMP:  -9; 6HR MAX TEMP:  -3;                                

FOREST CITY *    N/A     -8 -13  77 N13       30.32R WCI -28          
WEBSTER CITY * CLOUDY    -6 -15  65 N18       30.31R WCI -29          
IOWA FALLS *     N/A     -4 -10  73 NW14G21   30.30R WCI -24          
$$

IAZ007>011-017>019-026>030-037>042-050>054-066-121300-
   NORTHEAST IOWA
  
CITY           SKY/WX    TMP DP  RH WIND       PRES   REMARKS
CEDAR RAPIDS     N/A      4  -2  76 N15       30.21R WCI -14          
6HR MIN TEMP:   4; 6HR MAX TEMP:   9;                                

CHARLES CITY * CLOUDY    -4 -11  71 N17       30.28R WCI -26          
CLINTON *        N/A     10   6  84 N16       30.17R WCI  -7          
DECORAH *      MOCLDY     0  -6  78 N15G21    30.22R WCI -20          
DUBUQUE        CLOUDY     8   2  76 N22       30.14S WCI -12          
6HR MIN TEMP:   8; 6HR MAX TEMP:  10;                                

MONTICELLO *   CLOUDY     7   0  72 N17G23    30.19S WCI -12          
OELWEIN *        N/A      1  -4  78 N22G29    30.23R WCI -21          
WATERLOO         N/A     -2  -8  76 NW13      30.27R WCI -20          
6HR MIN TEMP:  -2; 6HR MAX TEMP:   3;                                

$$
 
IAZ064-065-067-068-078-121300-
   EAST CENTRAL IOWA
  
CITY           SKY/WX    TMP DP  RH WIND       PRES   REMARKS
DAVENPORT        N/A     11   4  73 N17       30.18R WCI  -6          
6HR MIN TEMP:  11; 6HR MAX TEMP:  13;                                

IOWA CITY        N/A      7  -1  70 N15       30.23S WCI -10          
6HR MIN TEMP:   6; 6HR MAX TEMP:  10; 6HR PCP: TRACE;                

MT. PLEASANT * CLOUDY     5   0  78 N20       30.19S WCI -15          
MUSCATINE *      N/A      9   3  78 N17G23    30.21S WCI -10          
QUAD CITIES    CLOUDY    12   5  73 N16G25    30.17R WCI  -5          
6HR MIN TEMP:  12; 6HR MAX TEMP:  13;                                

$$
 
IAZ062-063-075>077-085>089-095>099-121300-
   SOUTHEAST IOWA
  
CITY           SKY/WX    TMP DP  RH WIND       PRES   REMARKS
BURLINGTON     CLOUDY     6   0  76 N15G23    30.17R WCI -12          
6HR MIN TEMP:   6; 6HR MAX TEMP:  11;                                

FAIRFIELD *    CLOUDY     3  -6  66 NW20      30.21S WCI -18          
FORT MADISON * CLOUDY     7   1  78 NW13      30.19R WCI  -9          
KEOKUK *       CLOUDY     7   1  78 N14       30.19R WCI -10          
OSKALOOSA *      N/A      1  -5  76 N15       30.26S WCI -18          
OTTUMWA        CLOUDY     2  -6  69 NW17      30.25R WCI -18          
6HR MIN TEMP:   2; 6HR MAX TEMP:   7;                                

WASHINGTON *   CLOUDY     3   0  85 NW21G26   30.21F WCI -18          
$$

ABBREVIATIONS USED IN REMARKS
   TC - TEMPERATURES IN CELSIUS
  WCI - WIND CHILL INDEX
   HX - HEAT INDEX
  VSB - VISIBILITY  
$$